This is the latest recevied weather packets stored in our database for station/object N9BLE. If no packets are shown the sender has not sent any weather packets the latest 10 day(s).
| Time | Temp. | Humidity | Pressure | Rain* | Wind** | Luminosity | Snow |
|---|---|---|---|---|---|---|---|
| 1777552563 | 6.11° C | 83% | 1020.4 hPa | 0 mm | - | 75 W/m² | - |
| 1777552260 | 5.56° C | 83% | 1020.4 hPa | 0 mm | - | 52 W/m² | - |
| 1777551956 | 6.11° C | 84% | 1020.4 hPa | 0 mm | - | 54 W/m² | - |
| 1777551654 | 5.56° C | 85% | 1020.5 hPa | 0 mm | - | 62 W/m² | - |
| 1777551352 | 5.56° C | 85% | 1020.3 hPa | 0 mm | - | 43 W/m² | - |
| 1777551048 | 5.56° C | 87% | 1020.3 hPa | 0 mm | - | 42 W/m² | - |
| 1777550745 | 5° C | 88% | 1020.3 hPa | 0 mm | - | 50 W/m² | - |
| 1777550441 | 4.44° C | 90% | 1020.3 hPa | 0 mm | - | 45 W/m² | - |
| 1777550137 | 3.89° C | 91% | 1020.4 hPa | 0 mm | - | 39 W/m² | - |
| 1777549833 | 3.89° C | 92% | 1020.4 hPa | 0 mm | - | 28 W/m² | - |
| 1777549530 | 3.89° C | 93% | 1020.5 hPa | 0 mm | - | 17 W/m² | - |
| 1777549226 | 3.89° C | 94% | 1020.6 hPa | 0 mm | - | 14 W/m² | - |
| 1777548923 | 3.89° C | 95% | 1020.4 hPa | 0 mm | - | 12 W/m² | - |
| 1777548620 | 3.33° C | 95% | 1020.4 hPa | 0 mm | - | 13 W/m² | - |
| 1777548317 | 3.33° C | 96% | 1020.2 hPa | 0 mm | - | 13 W/m² | - |
| 1777548015 | 3.33° C | 96% | 1020.2 hPa | 0 mm | - | 14 W/m² | - |
| 1777547715 | 3.33° C | 97% | 1020.3 hPa | 0 mm | - | 10 W/m² | - |
| 1777547411 | 2.78° C | 97% | 1020.4 hPa | 0 mm | - | 7 W/m² | - |
| 1777547109 | 2.78° C | 97% | 1020.3 hPa | 0 mm | - | 6 W/m² | - |
| 1777546806 | 2.78° C | 98% | 1020.2 hPa | 0 mm | - | 4 W/m² | - |
| 1777546503 | 2.78° C | 98% | 1020.3 hPa | 0 mm | - | 3 W/m² | - |
| 1777546200 | 2.78° C | 98% | 1020.2 hPa | 0 mm | - | 1 W/m² | - |
| 1777545896 | 2.78° C | 98% | 1020 hPa | 0 mm | - | 1 W/m² | - |
| 1777545601 | 2.78° C | 98% | 1020.3 hPa | 0 mm | - | 0 W/m² | - |
| 1777545289 | 2.22° C | 98% | 1020.4 hPa | 0 mm | - | 0 W/m² | - |
* Rain latest hour (hover to see other rain measurements)
** Current wind speed in m/s (hover to see current wind gust speed)